• In Netherlands
  • List of Countries
  • For 7 days
  • Water Temperature
  • Satellite Maps
  • Weather Map
  • Weather Widgets
  • user-avatar
    Login

    Hourly Weather Heidelberg

    Today, 12 December, Tuesday

    Time Temperature Precipitation Wind Pressure Humidity
    00:00 +3°C° 0 mm 6 mps 712 mmHg 79%
    01:00 +2°C° 0 mm 7 mps 713 mmHg 78%
    02:00 +2°C° 0 mm 7 mps 714 mmHg 77%
    03:00 0°C° 0 mm 7 mps 715 mmHg 77%
    04:00 -1°C° 0 mm 7 mps 717 mmHg 76%
    05:00 -1°C° 0 mm 7 mps 718 mmHg 77%
    06:00 -1°C° 0 mm 7 mps 720 mmHg 77%
    07:00 -1°C° 0 mm 6 mps 722 mmHg 78%
    08:00 -1°C° 0 mm 6 mps 723 mmHg 78%
    09:00 -1°C° 0 mm 6 mps 724 mmHg 78%
    10:00 -1°C° 0 mm 6 mps 726 mmHg 78%
    11:00 -1°C° 0 mm 6 mps 727 mmHg 77%
    12:00 -1°C° 0 mm 6 mps 728 mmHg 76%
    13:00 +1°C° 0 mm 6 mps 728 mmHg 75%
    14:00 0°C° 0 mm 5 mps 729 mmHg 75%
    15:00 0°C° 0 mm 5 mps 730 mmHg 76%
    16:00 0°C° 0 mm 4 mps 730 mmHg 76%
    17:00 -1°C° 0 mm 4 mps 731 mmHg 77%
    18:00 -1°C° 0 mm 4 mps 732 mmHg 79%
    19:00 0°C° 0 mm 3 mps 732 mmHg 80%
    20:00 -1°C° 0 mm 3 mps 733 mmHg 82%
    21:00 -1°C° 0 mm 3 mps 733 mmHg 84%
    22:00 -1°C° 0 mm 3 mps 734 mmHg 86%
    23:00 -1°C° 0 mm 3 mps 734 mmHg 87%

    Tomorrow, 13 December, Wednesday

    Time Temperature Precipitation Wind Pressure Humidity
    00:00 -2°C° 0 mm 3 mps 734 mmHg 88%
    01:00 -2°C° 0 mm 3 mps 734 mmHg 89%
    02:00 -2°C° 0 mm 3 mps 734 mmHg 89%
    03:00 -2°C° 0 mm 3 mps 734 mmHg 88%
    04:00 -2°C° 0 mm 3 mps 734 mmHg 88%
    05:00 -2°C° 0 mm 3 mps 734 mmHg 86%
    06:00 -3°C° 0 mm 4 mps 733 mmHg 85%
    07:00 -2°C° 0 mm 4 mps 733 mmHg 83%
    08:00 -2°C° 0 mm 4 mps 732 mmHg 79%
    09:00 -1°C° 0 mm 5 mps 732 mmHg 75%
    10:00 -1°C° 0 mm 5 mps 731 mmHg 71%
    11:00 0°C° 0.1 mm 5 mps 730 mmHg 69%
    12:00 +1°C° 0.1 mm 5 mps 729 mmHg 66%
    13:00 +2°C° 0.1 mm 5 mps 728 mmHg 64%
    14:00 +2°C° 0.7 mm 6 mps 727 mmHg 68%
    15:00 +1°C° 0.7 mm 6 mps 727 mmHg 71%
    16:00 +1°C° 0.7 mm 6 mps 726 mmHg 75%
    17:00 +2°C° 0.4 mm 6 mps 725 mmHg 76%
    18:00 +2°C° 0.4 mm 6 mps 725 mmHg 78%
    19:00 +2°C° 0.4 mm 6 mps 724 mmHg 80%
    20:00 +2°C° 0.3 mm 6 mps 723 mmHg 81%
    21:00 +2°C° 0.3 mm 6 mps 722 mmHg 82%
    22:00 +3°C° 0.3 mm 6 mps 721 mmHg 83%
    23:00 +3°C° 0.5 mm 7 mps 721 mmHg 83%

    Day after tomorrow, 14 December, Thursday

    Time Temperature Precipitation Wind Pressure Humidity
    00:00 +4°C° 0.5 mm 7 mps 721 mmHg 84%
    01:00 +4°C° 0.5 mm 7 mps 721 mmHg 84%
    02:00 +4°C° 0.4 mm 7 mps 721 mmHg 83%
    03:00 +3°C° 0.4 mm 6 mps 721 mmHg 81%
    04:00 +3°C° 0.4 mm 6 mps 721 mmHg 79%
    05:00 +3°C° 0.3 mm 6 mps 722 mmHg 78%
    06:00 +2°C° 0.3 mm 7 mps 722 mmHg 77%
    07:00 +2°C° 0.3 mm 7 mps 723 mmHg 76%
    08:00 +2°C° 0.2 mm 6 mps 723 mmHg 77%
    09:00 +2°C° 0.2 mm 5 mps 724 mmHg 77%
    10:00 +1°C° 0.2 mm 5 mps 724 mmHg 78%
    11:00 +2°C° 0.6 mm 5 mps 723 mmHg 79%
    12:00 +2°C° 0.6 mm 5 mps 722 mmHg 80%
    13:00 +2°C° 0.6 mm 5 mps 722 mmHg 80%
    14:00 +2°C° 0.7 mm 5 mps 720 mmHg 79%
    15:00 +3°C° 0.7 mm 5 mps 719 mmHg 79%
    16:00 +3°C° 0.7 mm 5 mps 718 mmHg 78%
    17:00 +2°C° 1.9 mm 5 mps 717 mmHg 80%
    18:00 +2°C° 1.9 mm 5 mps 716 mmHg 81%
    19:00 +2°C° 1.9 mm 6 mps 715 mmHg 83%
    20:00 +2°C° 0.4 mm 6 mps 716 mmHg 80%
    21:00 +2°C° 0.4 mm 6 mps 716 mmHg 77%
    22:00 +1°C° 0.4 mm 6 mps 716 mmHg 74%
    23:00 +1°C° 0.1 mm 6 mps 717 mmHg 75%

    15 December, Friday

    Time Temperature Precipitation Wind Pressure Humidity
    00:00 -1°C° 0.1 mm 6 mps 718 mmHg 76%
    01:00 -1°C° 0.1 mm 6 mps 719 mmHg 76%
    02:00 0°C° 0 mm 5 mps 719 mmHg 78%
    03:00 -1°C° 0 mm 4 mps 720 mmHg 80%
    04:00 -1°C° 0 mm 4 mps 720 mmHg 81%
    05:00 -1°C° 0 mm 4 mps 720 mmHg 82%
    06:00 -2°C° 0 mm 4 mps 720 mmHg 83%
    07:00 -2°C° 0 mm 4 mps 720 mmHg 85%
    08:00 -1°C° 0 mm 4 mps 720 mmHg 84%
    09:00 -1°C° 0 mm 4 mps 719 mmHg 82%
    10:00 0°C° 0 mm 4 mps 719 mmHg 81%
    11:00 0°C° 0 mm 4 mps 719 mmHg 78%
    12:00 +1°C° 0 mm 4 mps 719 mmHg 76%
    13:00 +3°C° 0 mm 4 mps 719 mmHg 73%
    14:00 +1°C° 0 mm 4 mps 719 mmHg 74%
    15:00 +2°C° 0 mm 3 mps 719 mmHg 76%
    16:00 +2°C° 0 mm 3 mps 719 mmHg 78%
    17:00 +2°C° 0.4 mm 3 mps 719 mmHg 79%
    18:00 +1°C° 0.4 mm 3 mps 719 mmHg 81%
    19:00 +1°C° 0.4 mm 3 mps 720 mmHg 83%
    20:00 +1°C° 0 mm 3 mps 720 mmHg 86%
    21:00 0°C° 0 mm 3 mps 720 mmHg 88%
    22:00 +1°C° 0 mm 2 mps 720 mmHg 91%
    23:00 +1°C° 0 mm 2 mps 721 mmHg 92%

    16 December, Saturday

    Time Temperature Precipitation Wind Pressure Humidity
    00:00 +1°C° 0 mm 2 mps 721 mmHg 92%
    01:00 +1°C° 0 mm 2 mps 721 mmHg 92%
    02:00 +1°C° 0.2 mm 2 mps 722 mmHg 93%
    03:00 -1°C° 0.2 mm 2 mps 722 mmHg 93%
    04:00 +1°C° 0.2 mm 1 mps 723 mmHg 93%
    05:00 -1°C° 0.1 mm 2 mps 723 mmHg 93%
    06:00 -1°C° 0.1 mm 2 mps 724 mmHg 93%
    07:00 -1°C° 0.1 mm 2 mps 724 mmHg 92%
    08:00 -1°C° 0 mm 2 mps 725 mmHg 91%
    09:00 +1°C° 0 mm 2 mps 726 mmHg 89%
    10:00 0°C° 0 mm 3 mps 726 mmHg 88%
    11:00 0°C° 0 mm 3 mps 727 mmHg 86%
    12:00 +1°C° 0 mm 3 mps 727 mmHg 83%
    13:00 0°C° 0 mm 4 mps 728 mmHg 81%
    14:00 0°C° 0.1 mm 4 mps 728 mmHg 83%
    15:00 0°C° 0.1 mm 4 mps 728 mmHg 84%
    16:00 +1°C° 0.1 mm 3 mps 728 mmHg 86%
    17:00 0°C° 0.4 mm 4 mps 729 mmHg 87%
    18:00 -1°C° 0.4 mm 4 mps 729 mmHg 87%
    19:00 -1°C° 0.4 mm 4 mps 730 mmHg 88%
    20:00 -1°C° 0.2 mm 4 mps 730 mmHg 87%
    21:00 -1°C° 0.2 mm 4 mps 730 mmHg 86%
    22:00 -1°C° 0.2 mm 4 mps 730 mmHg 85%
    23:00 -1°C° 0.1 mm 4 mps 731 mmHg 86%

    17 December, Sunday

    Time Temperature Precipitation Wind Pressure Humidity
    00:00 -2°C° 0.1 mm 4 mps 731 mmHg 87%
    01:00 -2°C° 0.1 mm 4 mps 731 mmHg 88%
    02:00 -2°C° 0.1 mm 4 mps 731 mmHg 88%
    03:00 -2°C° 0.1 mm 4 mps 731 mmHg 88%
    04:00 -2°C° 0.1 mm 4 mps 731 mmHg 88%
    05:00 -2°C° 0.2 mm 4 mps 731 mmHg 87%
    06:00 -2°C° 0.2 mm 5 mps 731 mmHg 86%
    07:00 -2°C° 0.2 mm 5 mps 731 mmHg 85%
    08:00 -2°C° 0.5 mm 5 mps 731 mmHg 86%
    09:00 -2°C° 0.5 mm 5 mps 731 mmHg 87%
    10:00 -2°C° 0.5 mm 5 mps 731 mmHg 88%
    11:00 -2°C° 0.8 mm 5 mps 731 mmHg 87%
    12:00 -3°C° 0.8 mm 6 mps 731 mmHg 86%
    13:00 -2°C° 0.8 mm 6 mps 731 mmHg 86%
    14:00 -2°C° 0.5 mm 5 mps 731 mmHg 87%
    15:00 -2°C° 0.5 mm 5 mps 731 mmHg 88%
    16:00 -2°C° 0.5 mm 4 mps 731 mmHg 88%
    17:00 -2°C° 0.2 mm 4 mps 732 mmHg 90%
    18:00 -1°C° 0.2 mm 3 mps 732 mmHg 91%
    19:00 -2°C° 0.2 mm 3 mps 732 mmHg 92%
    20:00 -2°C° 0 mm 2 mps 733 mmHg 92%
    21:00 -3°C° 0 mm 2 mps 733 mmHg 93%
    22:00 -4°C° 0 mm 2 mps 733 mmHg 94%
    23:00 -4°C° 0 mm 2 mps 733 mmHg 94%
    Show more